"Pseudo-MPEC" for P11T2fo

Created 2024 Apr 4 0:22:07 UT using Find_Orb

Click here for an explanation of pseudo-MPECs

 
 Astrometry: 
     P11T2fo* C2024 04 01%O;\j09cS4g,iB?4`9#J+H=e5+C(B1G)L]M7P6DeX*.IB`bydmG(F51
     P11T2fo  C2024 04 0126gV?c0*0:WHgHx$l=\wK6FGP/F:VGvi^=EW/akIr97@ko3/+dZAF51
     P11T2fo  C2024 04 010\Ks(AstrometryePPbs4%rE`',QQ%DBy5kfDvPYq;;B4w-MI7;)F51
     P11T2fo  C2024 04 01/`i7GtBredacted;%S/lR+BeV7xL#_D+c\lE;56b/XhMvmZ_92D6F52
     P11T2fo  C2024 04 01wMWRS58x@UZtGY5\pwk(erY3RLecb=jtpCcbA]=UW5mT+Dy3dqlwF52
     P11T2fo KB2024 04 02Ie#h(@+E0YoSBWO%N*\F?)$Ny88p^it#lb+fGQvZF*XY[`=r-]!-958
     P11T2fo KB2024 04 02a)aSA1ld+oWH!wI,N*RX,dkBK.:2Eos-yZ`tl,_QpyWmIcASoS9Z958
     P11T2fo KB2024 04 02D5_-OqRyD9x%TrK`1b'?u%(p2RJ%2H;KUDv.C@GAy!nJY'$a)x6b958
     P11T2fo |C2024 04 02Z,t2Vyclickx%nIZ9EB\@DX?yj;_qtFTL\p,ij?yCq$8A9+@5g`3807
     P11T2fo |C2024 04 02E3KJ(eu1)NHy5kC.j@%IXcA++here'?*aR014u`7,i?.B.yeD,vm807
     P11T2fo |C2024 04 02vc\=nAy3K`?[L.V2y=Kx'KdwIJspBpY$g'yfoK'h,Sv=eu4An_@u807
     P11T2fo |C2024 04 02d^r3.l)*/]D.$93+'t8$7#y%ymd?B)W;p?aTIWp2::ur-.#i(oGs807
     P11T2fo KC2024 04 02sxLH=Ej_pAFJjWA#r5xDw`fCq3pjgIp5f;@=e68f;)C6`oK8:RhuL01
     P11T2fo KC2024 04 02gUl2w;(2[Dl!;2kTx,7uBwEHi9JA/mqvc.yXfor7f95XnPj_*BFAL01
     P11T2fo KC2024 04 02Br=j;Vo]eTarqJLOa8hPJ6;ueexplanation7A,/dYL.t(W1mMe/L01
     P11T2fo KC2024 04 02F\3LeN-$hC*]?IO:0^Xi1A=9ROa:JQ],p1J$5lGs*@CY5S=Gv(h9L01
     P11T2fo KC2024 04 02vAh]!]a'hx3^/7x)dKg^HsUAQcEv*g3_$tfFLS_5j!3N?9o$apwqL01
     P11T2fo KB2024 04 03.95342513 34 08.27 -07 53 36.6    ~43NM 20.5 GXNEOCPI93
     P11T2fo KB2024 04 03.95893713 34 11.64 -07 54 53.0    ~43NM 20.6 GXNEOCPI93
     P11T2fo KB2024 04 03.96444113 34 14.97 -07 56 08.4    ~43NM 20.3 GXNEOCPI93

Station data:
(807) Cerro Tololo Observatory, La Serena  (S30.169133 W70.805900)  Chile.
   Observer R. Holmes. 0.61-m f/6.5 astrograph + CCD.
(958) Observatoire de Dax  (N43.693381 W1.030530)  France.  Observer P.
   Dupouy. 0.32-m Schmidt-Cassegrain.
(F51) Pan-STARRS 1, Haleakala  (N20.707234 W156.255910)  US/Hawaii.
   Observers J. Bulger, T. Lowe, A. Schultz, M. Willman. Measurers K.
   Chambers, S. Chastel, T. de Boer, L. Denneau, J. Fairlamb, H. Flewelling,
   M. Huber, C.-C. Lin, E. Magnier, Y. Ramanjooloo, R. Wainscoat, R. Weryk.
   1.8-m Ritchey-Chrétien + CCD.
(F52) Pan-STARRS 2, Haleakala  (N20.707382 W156.255910)  US/Hawaii.
   Observers J. Bulger, T. Dukes, T. Lowe, A. Schultz, M. Willman. Measurers
   K. Chambers, S. Chastel, T. de Boer, L. Denneau, J. Fairlamb, H.
   Flewelling, M. Huber, C.-C. Lin, E. Magnier, Y. Ramanjooloo, R. Wainscoat,
   R. Weryk. 1.8-m Ritchey-Chrétien + CCD.
(I93) St Pardon de Conques  (N44.558670 W0.202960)  France.  Observers F.
   Losse, W. D'Anna. Measurer F. Losse. 0.40-m f/3.7 reflector + CCD.
(L01) Višnjan Observatory, Tičan  (N45.290897 E13.749300)  Croatia.
   Observers K. Korlević, D. Pujagic, V. Dobos. Measurers D. Pujagic, K.
   Korlević. 1.0-m f/2.9 reflector + CCD.

Orbital elements:  P11T2fo
   Perihelion 2024 Apr 9.43035 +/- 0.00531 TT = 10:19:42 (JD 2460409.93035)
Epoch 2024 Apr  3.0 TT = JDT 2460403.5   Earth MOID: 0.0360   Ma: 0.0860
M 357.10263096 +/- 0.0022           (J2000 ecliptic)             AutoNEOCP
n   0.45057693 +/- 0.000459         Peri.  185.21392 +/- 0.006
a   1.68509120 +/- 0.00114          Node    15.51074 +/- 0.00036
e   0.3845931 +/- 0.000399          Incl.    5.07437 +/- 0.0040
P   2.19/798.96d           H 26.82  G  0.15   U  7.6
q 1.03701669 +/- 3.17e-5    Q 2.33316571 +/- 0.00226
19 of 20 observations 2024 Apr. 1-3; mean residual 0".32
Residuals in arcseconds: 
240401 F51  .09-  .19+    240402 958  .17-  .86+    240402 L01  .15+  .02-    
240401 F51  .07+  .22+    240402 807  .24+  .18-    240402 L01  .45-  .25-    
240401 F51  .23+  .26-    240402 807  .27+  .19-    240402 L01  .60-  .02+    
240401 F52  .04+  .03-    240402 807  .00   .13-    240403 I93  .00   .12+    
240401 F52  .08-  .07-    240402 807  .11+  .05-    240403 I93  .33+  .16-    
240402 958  .98-  .68-    240402 L01  .18+  .27-    240403 I93  .21+  .44+    
240402 958( 1.7-  .60-)   240402 L01  .13-  .00     

Ephemerides (geocentric):
Date (UTC) HH   RA             Dec           delta  r     elong  mag " sig PA
---- --------  ------------   ------------  ------ ------ -----  --- --------
2024 04 04 00  13 34 34.312   -08 01 21.56  .03909 1.0386 169.4 20.5 .217 161
2024 04 04 01  13 35 02.200   -08 10 54.77  .03907 1.0386 169.3 20.5 .227 160
2024 04 04 02  13 35 30.139   -08 20 28.52  .03904 1.0385 169.2 20.5 .237 160
2024 04 04 03  13 35 58.129   -08 30 02.80  .03902 1.0385 169.1 20.5 .247 159
2024 04 04 04  13 36 26.170   -08 39 37.60  .03900 1.0385 169.0 20.5 .257 159
2024 04 04 05  13 36 54.261   -08 49 12.88  .03898 1.0385 168.9 20.5 .267 158
2024 04 04 06  13 37 22.403   -08 58 48.64  .03896 1.0384 168.7 20.5 .278 157
2024 04 04 07  13 37 50.595   -09 08 24.86  .03894 1.0384 168.6 20.5 .289 157
2024 04 04 08  13 38 18.837   -09 18 01.52  .03892 1.0384 168.5 20.5 .301 156
2024 04 04 09  13 38 47.129   -09 27 38.60  .03890 1.0384 168.4 20.5 .312 156
2024 04 04 10  13 39 15.470   -09 37 16.09  .03888 1.0383 168.3 20.5 .324 156
2024 04 04 11  13 39 43.861   -09 46 53.97  .03886 1.0383 168.2 20.5 .336 155
2024 04 04 12  13 40 12.302   -09 56 32.21  .03884 1.0383 168.0 20.6 .348 155
2024 04 04 13  13 40 40.792   -10 06 10.81  .03882 1.0383 167.9 20.6 .361 154
2024 04 04 14  13 41 09.330   -10 15 49.74  .03881 1.0383 167.8 20.6 .374 154
2024 04 04 15  13 41 37.918   -10 25 28.99  .03879 1.0382 167.7 20.6 .387 154
2024 04 04 16  13 42 06.554   -10 35 08.54  .03877 1.0382 167.5 20.6 .400 153
2024 04 04 17  13 42 35.239   -10 44 48.37  .03876 1.0382 167.4 20.6 .414 153
2024 04 04 18  13 43 03.972   -10 54 28.45  .03874 1.0382 167.3 20.6 .428 153
2024 04 04 19  13 43 32.753   -11 04 08.78  .03873 1.0382 167.2 20.6 .442 152
2024 04 04 20  13 44 01.582   -11 13 49.34  .03871 1.0381 167.0 20.6 .456 152
2024 04 04 21  13 44 30.459   -11 23 30.10  .03870 1.0381 166.9 20.6 .471 152
2024 04 04 22  13 44 59.383   -11 33 11.05  .03869 1.0381 166.8 20.6 .486 152
2024 04 04 23  13 45 28.354   -11 42 52.17  .03868 1.0381 166.6 20.6 .501 151
2024 04 05 00  13 45 57.373   -11 52 33.44  .03866 1.0381 166.5 20.6 .516 151
2024 04 05 01  13 46 26.439   -12 02 14.84  .03865 1.0380 166.4 20.6 .532 151
2024 04 05 02  13 46 55.551   -12 11 56.36  .03864 1.0380 166.2 20.6 .548 151
2024 04 05 03  13 47 24.709   -12 21 37.97  .03863 1.0380 166.1 20.6 .564 150
2024 04 05 04  13 47 53.914   -12 31 19.66  .03862 1.0380 166.0 20.6 .580 150
2024 04 05 05  13 48 23.165   -12 41 01.40  .03861 1.0380 165.8 20.6 .597 150
2024 04 05 06  13 48 52.462   -12 50 43.18  .03860 1.0379 165.7 20.6 .613 150
2024 04 05 07  13 49 21.804   -13 00 24.98  .03859 1.0379 165.5 20.6 .630 150
2024 04 05 08  13 49 51.192   -13 10 06.78  .03859 1.0379 165.4 20.6 .648 149
2024 04 05 09  13 50 20.624   -13 19 48.56  .03858 1.0379 165.3 20.6 .665 149
2024 04 05 10  13 50 50.102   -13 29 30.30  .03857 1.0379 165.1 20.6 .683 149
2024 04 05 11  13 51 19.624   -13 39 11.99  .03857 1.0378 165.0 20.6 .701 149
2024 04 05 12  13 51 49.191   -13 48 53.60  .03856 1.0378 164.8 20.6 .719 149
2024 04 05 13  13 52 18.802   -13 58 35.11  .03855 1.0378 164.7 20.7 .738 148
2024 04 05 14  13 52 48.457   -14 08 16.52  .03855 1.0378 164.6 20.7 .757 148
2024 04 05 15  13 53 18.155   -14 17 57.78  .03855 1.0378 164.4 20.7 .776 148
2024 04 05 16  13 53 47.897   -14 27 38.90  .03854 1.0378 164.3 20.7 .795 148
2024 04 05 17  13 54 17.682   -14 37 19.85  .03854 1.0377 164.1 20.7 .814 148
2024 04 05 18  13 54 47.511   -14 47 00.60  .03854 1.0377 164.0 20.7 .834 148
2024 04 05 19  13 55 17.382   -14 56 41.15  .03853 1.0377 163.8 20.7 .854 148
2024 04 05 20  13 55 47.295   -15 06 21.46  .03853 1.0377 163.7 20.7 .874 147
2024 04 05 21  13 56 17.250   -15 16 01.53  .03853 1.0377 163.5 20.7 .894 147
2024 04 05 22  13 56 47.248   -15 25 41.34  .03853 1.0377 163.4 20.7 .914 147
2024 04 05 23  13 57 17.287   -15 35 20.86  .03853 1.0377 163.2 20.7 .935 147